Showing default

CAPELLA-16 (ACADIA), 65318

Orbit data source: Space-Track

CAPELLA-16 (ACADIA), 65318 is a payload satellite owned by Capella Space (US) in SSO that was launched on Tue, 26 Aug 2025 UTC via an FALCON 9 launch vehicle from the Air Force Western Test Range (AFWTR). Payload-class satellites include a variety of spacecraft equipped with specific instruments for various scientific and technological missions. These include communications satellites like Starlink; space stations such as the ISS; scientific satellites like the Hubble; Earth observation satellites from companies like Planet Labs, Umbra, and HawkEye 360; GPS; miniature CubeSats for education and research; and military/defense satellites.

Loading next visibility...
Identifier
65318, 2025-188D
Orbit
SSO
Country
Flag of USUS
Related business
Manufacturer
Capella Space
Mission
Operational Commercial Radar Imaging
Bus & Motor
ACADIA, Unknown motor
Mass
180 kg wet, ~150 kg dry
Launch date (UTC)
2025-08-26 (8 months ago)
Launch vehicle
FALCON 9
Launch site
Air Force Western Test Range (AFWTR)
Object type
Payload
Rocket body
Debris
Shape & HBR
Box + 2 Pan + 1 Dish + 1 Rod, 14.5 m
Radar Cross Section
0.463 m², Large (>1 m²)

Expand to show TLE details & history
Last TLE update: 11 hours ago

TLE from 11 hours ago
0 CAPELLA-16 (ACADIA)
1 65318U 25188D   26124.16157884  .00007284  00000-0  68251-3 0  9998
2 65318  97.7355 199.9519 0005214  49.3441 310.8231 14.94321413 37348
Epoch: 2026-05-04T03:52Z
TLE epoch observation values (Epoch: 2026-05-04T03:52:40.411Z)
Latitude
-0.00012°
Longitude
-80.27121°
Altitude
585.153 km
Speed
7.569 km/s
True Right ascension
13h 19m 48s
True Declination
0° 00' 00"
Sunlit
Object was in full shadow at epoch
Visualization orbit readout
Latitude
Unknown
Longitude
Unknown
Altitude
Unknown
Speed
Unknown
Apparent Right ascension
Unknown
Apparent Declination
Unknown
Sunlit
N/A
Visualization observer readout
Local Sidereal Time
22:49:39
Azimuth
Unknown
Elevation
Unknown
Doppler factor
Unknown
Orbital elements
Apogee altitude
585.123 km
Perigee altitude
577.865 km
Semi-major axis
6,959.631 km
Eccentricity
0.00052
Inclination
97.7355°
RAAN
199.9519°
Arg. of periapsis
49.3441°
True anomaly
310.77787°
Mean anomaly
310.8231°
Eccentric anomaly
310.80049°
Mean motion
3.73821 °/min
Orbital period
96.3 mins
BSTAR
0.00068251
Loading maneuver chart data...
Computing Atmospheric mass density...
Loading historical data...
Loading historical data...
Loading historical data...
Loading historical data...
Loading historical data...
Loading historical data...
Loading historical data...

Documentation

Showing up to 5 results
|